| time (UTC) | temp F | wind direction | speed MPH | gust MPH | rain 1hr in | rain 24hr in | rain mn in | humidity % | barometer mb |
| 20260903145412 | 70 | 0 | 0.0 | 0.0 | 0.00 | 0.28 | 0.00 | 53 | 1016.5 |
| 20260903144512 | 69 | 0 | 0.0 | 0.0 | 0.00 | 0.28 | 0.00 | 53 | 1016.5 |
| 20260903143611 | 68 | 0 | 0.0 | 0.0 | 0.00 | 0.28 | 0.00 | 54 | 1016.5 |
| 20260903142712 | 68 | 0 | 0.0 | 0.0 | 0.00 | 0.28 | 0.00 | 54 | 1016.5 |
| 20260903141812 | 67 | 0 | 0.0 | 0.0 | 0.00 | 0.28 | 0.00 | 56 | 1016.5 |
| 20260903140911 | 66 | 0 | 0.0 | 0.0 | 0.00 | 0.28 | 0.00 | 59 | 1016.5 |
| 20260903140033 | 64 | 140 | 1.0 | 4.0 | 0.00 | 0.28 | 0.00 | 61 | 1016.5 |
| 20260903135412 | 64 | 140 | 1.0 | 4.0 | 0.00 | 0.28 | 0.00 | 62 | 1016.5 |
| 20260903134511 | 64 | 0 | 0.0 | 0.0 | 0.00 | 0.28 | 0.00 | 61 | 1016.5 |
| 20260903133611 | 65 | 174 | 2.0 | 8.0 | 0.00 | 0.28 | 0.00 | 58 | 1016.5 |
| 20260903132711 | 63 | 189 | 1.0 | 8.0 | 0.00 | 0.28 | 0.00 | 52 | 1016.5 |
| 20260903131811 | 61 | 327 | 0.0 | 3.0 | 0.00 | 0.28 | 0.00 | 66 | 1016.5 |
| 20260903130911 | 61 | 0 | 0.0 | 0.0 | 0.00 | 0.28 | 0.00 | 65 | 1016.5 |
| 20260903130011 | 63 | 132 | 0.0 | 6.0 | 0.00 | 0.28 | 0.00 | 62 | 1016.5 |
| 20260903125412 | 64 | 98 | 2.0 | 9.0 | 0.00 | 0.28 | 0.00 | 60 | 1016.5 |
| 20260903124512 | 65 | 175 | 2.0 | 10.0 | 0.00 | 0.28 | 0.00 | 54 | 1016.5 |
| 20260903123612 | 62 | 202 | 1.0 | 7.0 | 0.00 | 0.28 | 0.00 | 55 | 1016.5 |
| 20260903122733 | 61 | 0 | 0.0 | 0.0 | 0.00 | 0.28 | 0.00 | 65 | 1016.5 |
| 20260903121811 | 62 | 0 | 0.0 | 0.0 | 0.00 | 0.28 | 0.00 | 63 | 1016.5 |
| 20260903120933 | 64 | 0 | 0.0 | 0.0 | 0.00 | 0.28 | 0.00 | 59 | 1016.5 |
| 20260903120012 | 68 | 210 | 0.0 | 2.0 | 0.00 | 0.28 | 0.00 | 51 | 1016.5 |
| 20260903115412 | 68 | 210 | 0.0 | 5.0 | 0.00 | 0.28 | 0.00 | 43 | 1016.5 |
| 20260903114512 | 69 | 209 | 1.0 | 6.0 | 0.00 | 0.28 | 0.00 | 42 | 1016.5 |
| 20260903113612 | 69 | 213 | 2.0 | 8.0 | 0.00 | 0.28 | 0.00 | 43 | 1016.5 |
| 20260903112712 | 69 | 193 | 1.0 | 7.0 | 0.00 | 0.28 | 0.00 | 43 | 1016.5 |
| 20260903111833 | 69 | 213 | 1.0 | 6.0 | 0.00 | 0.28 | 0.00 | 44 | 1016.5 |
| 20260903110911 | 69 | 196 | 1.0 | 5.0 | 0.00 | 0.28 | 0.00 | 44 | 1016.5 |
| 20260903110033 | 69 | 190 | 1.0 | 5.0 | 0.00 | 0.28 | 0.00 | 44 | 1016.5 |
| 20260903105411 | 69 | 189 | 1.0 | 5.0 | 0.00 | 0.28 | 0.00 | 44 | 1016.5 |
| 20260903104512 | 70 | 180 | 2.0 | 10.0 | 0.00 | 0.28 | 0.00 | 44 | 1016.5 |
| 20260903103612 | 70 | 197 | 0.0 | 5.0 | 0.00 | 0.28 | 0.00 | 44 | 1016.5 |
| 20260903102712 | 70 | 201 | 2.0 | 8.0 | 0.00 | 0.28 | 0.00 | 43 | 1016.5 |
| 20260903101811 | 70 | 202 | 2.0 | 7.0 | 0.00 | 0.28 | 0.00 | 44 | 1016.5 |
| 20260903100911 | 71 | 198 | 3.0 | 8.0 | 0.00 | 0.28 | 0.00 | 44 | 1016.5 |
| 20260903100033 | 71 | 183 | 4.0 | 13.0 | 0.00 | 0.28 | 0.00 | 43 | 1016.5 |
| 20260903095412 | 71 | 189 | 2.0 | 13.0 | 0.00 | 0.28 | 0.00 | 43 | 1016.5 |
| 20260903094512 | 70 | 222 | 2.0 | 7.0 | 0.00 | 0.28 | 0.00 | 44 | 1016.5 |
| 20260903093611 | 70 | 228 | 0.0 | 4.0 | 0.00 | 0.28 | 0.00 | 44 | 1016.5 |
| 20260903092711 | 71 | 201 | 1.0 | 6.0 | 0.00 | 0.28 | 0.00 | 45 | 1016.5 |
| 20260903091833 | 71 | 191 | 1.0 | 6.0 | 0.00 | 0.28 | 0.00 | 44 | 1016.5 |
| 20260903090912 | 72 | 208 | 2.0 | 8.0 | 0.00 | 0.28 | 0.00 | 43 | 1016.5 |
| 20260903090011 | 72 | 196 | 3.0 | 8.0 | 0.00 | 0.28 | 0.00 | 44 | 1016.5 |
| 20260903085433 | 72 | 194 | 1.0 | 7.0 | 0.00 | 0.28 | 0.00 | 44 | 1016.5 |
| 20260903084512 | 72 | 193 | 3.0 | 9.0 | 0.00 | 0.28 | 0.00 | 44 | 1016.5 |
| 20260903083612 | 72 | 192 | 2.0 | 11.0 | 0.00 | 0.28 | 0.00 | 44 | 1016.5 |
| 20260903082733 | 72 | 217 | 2.0 | 9.0 | 0.00 | 0.28 | 0.00 | 45 | 1016.5 |
| 20260903081812 | 72 | 202 | 3.0 | 7.0 | 0.00 | 0.28 | 0.00 | 45 | 1016.5 |
| 20260903080912 | 72 | 194 | 3.0 | 9.0 | 0.00 | 0.28 | 0.00 | 45 | 1016.5 |
| 20260903080012 | 72 | 194 | 0.0 | 4.0 | 0.00 | 0.28 | 0.00 | 45 | 1016.5 |
| 20260903075412 | 73 | 198 | 2.0 | 14.0 | 0.00 | 0.28 | 0.00 | 44 | 1016.5 |
| 20260903074512 | 72 | 199 | 3.0 | 14.0 | 0.00 | 0.28 | 0.00 | 45 | 1016.5 |
| 20260903073611 | 72 | 199 | 2.0 | 6.0 | 0.00 | 0.28 | 0.00 | 45 | 1016.5 |
| 20260903072712 | 73 | 201 | 3.0 | 7.0 | 0.00 | 0.28 | 0.00 | 45 | 1016.5 |
| 20260903071812 | 73 | 196 | 2.0 | 7.0 | 0.00 | 0.28 | 0.00 | 45 | 1016.5 |
| 20260903070912 | 73 | 203 | 1.0 | 8.0 | 0.00 | 0.28 | 0.00 | 45 | 1016.5 |
| 20260903070012 | 73 | 209 | 1.0 | 8.0 | 0.00 | 0.28 | 0.00 | 45 | 1016.5 |
| 20260903065411 | 73 | 199 | 2.0 | 8.0 | 0.00 | 0.28 | 0.00 | 45 | 1016.5 |
| 20260903064512 | 73 | 198 | 4.0 | 9.0 | 0.00 | 0.28 | 0.00 | 44 | 1016.5 |
| 20260903063612 | 74 | 199 | 5.0 | 16.0 | 0.00 | 0.28 | 0.00 | 44 | 1016.5 |
| 20260903062712 | 74 | 199 | 5.0 | 11.0 | 0.00 | 0.28 | 0.00 | 45 | 1016.5 |
| 20260903061812 | 74 | 198 | 5.0 | 9.0 | 0.00 | 0.28 | 0.00 | 45 | 1016.5 |
| 20260903060932 | 74 | 195 | 4.0 | 9.0 | 0.00 | 0.28 | 0.00 | 44 | 1016.5 |
| 20260903060033 | 74 | 195 | 2.0 | 9.0 | 0.00 | 0.28 | 0.00 | 44 | 1016.5 |
| 20260903055412 | 74 | 200 | 2.0 | 8.0 | 0.00 | 0.28 | 0.28 | 43 | 1016.5 |
| 20260903054512 | 74 | 201 | 4.0 | 9.0 | 0.00 | 0.28 | 0.28 | 44 | 1016.5 |
| 20260903053612 | 74 | 201 | 5.0 | 9.0 | 0.00 | 0.28 | 0.28 | 44 | 1016.5 |
| 20260903052712 | 74 | 193 | 2.0 | 9.0 | 0.00 | 0.28 | 0.28 | 44 | 1016.5 |
| 20260903051812 | 74 | 182 | 3.0 | 10.0 | 0.00 | 0.28 | 0.28 | 44 | 1016.5 |
| 20260903050912 | 74 | 185 | 2.0 | 10.0 | 0.00 | 0.28 | 0.28 | 45 | 1016.5 |
| 20260903050012 | 74 | 188 | 2.0 | 9.0 | 0.00 | 0.28 | 0.28 | 45 | 1016.5 |
| 20260903045411 | 74 | 189 | 2.0 | 9.0 | 0.00 | 0.28 | 0.28 | 44 | 1016.5 |
| 20260903044533 | 74 | 189 | 2.0 | 8.0 | 0.00 | 0.28 | 0.28 | 45 | 1016.5 |
| 20260903043612 | 74 | 197 | 3.0 | 8.0 | 0.00 | 0.28 | 0.28 | 43 | 1016.5 |
| 20260903042712 | 74 | 201 | 2.0 | 9.0 | 0.00 | 0.28 | 0.28 | 44 | 1016.5 |
| 20260903041812 | 74 | 188 | 4.0 | 16.0 | 0.00 | 0.28 | 0.28 | 44 | 1016.5 |
| 20260903040911 | 74 | 184 | 3.0 | 11.0 | 0.00 | 0.28 | 0.28 | 44 | 1016.5 |
| 20260903040012 | 74 | 190 | 2.0 | 12.0 | 0.00 | 0.28 | 0.28 | 44 | 1016.5 |
| 20260903035412 | 74 | 193 | 2.0 | 10.0 | 0.00 | 0.28 | 0.28 | 45 | 1016.5 |
| 20260903034532 | 74 | 193 | 5.0 | 11.0 | 0.00 | 0.28 | 0.28 | 45 | 1016.5 |
| 20260903033612 | 74 | 181 | 4.0 | 12.0 | 0.00 | 0.28 | 0.28 | 45 | 1016.5 |
| 20260903032733 | 74 | 185 | 5.0 | 11.0 | 0.00 | 0.28 | 0.28 | 45 | 1016.5 |
| 20260903031812 | 74 | 211 | 2.0 | 11.0 | 0.00 | 0.28 | 0.28 | 46 | 1016.5 |
| 20260903030912 | 74 | 212 | 3.0 | 8.0 | 0.00 | 0.28 | 0.28 | 46 | 1016.5 |
| 20260903030012 | 74 | 202 | 5.0 | 13.0 | 0.00 | 0.28 | 0.28 | 47 | 1016.5 |
| 20260903025412 | 74 | 188 | 5.0 | 12.0 | 0.00 | 0.28 | 0.28 | 46 | 1016.5 |
| 20260903024512 | 74 | 185 | 7.0 | 15.0 | 0.00 | 0.28 | 0.28 | 47 | 1016.5 |
| 20260903023612 | 74 | 184 | 6.0 | 12.0 | 0.03 | 0.28 | 0.28 | 48 | 1016.5 |
| 20260903022711 | 72 | 181 | 6.0 | 12.0 | 0.03 | 0.28 | 0.28 | 50 | 1016.5 |
| 20260903021812 | 71 | 197 | 2.0 | 8.0 | 0.03 | 0.28 | 0.28 | 59 | 1016.5 |
| 20260903020912 | 71 | 206 | 4.0 | 11.0 | 0.03 | 0.28 | 0.28 | 62 | 1016.5 |
| 20260903020012 | 71 | 206 | 4.0 | 10.0 | 0.03 | 0.28 | 0.28 | 66 | 1016.5 |
| 20260903015412 | 73 | 189 | 3.0 | 9.0 | 0.03 | 0.28 | 0.28 | 66 | 1016.5 |
| 20260903014512 | 76 | 0 | 0.0 | 0.0 | 0.03 | 0.28 | 0.28 | 62 | 1016.5 |
| 20260903013612 | 77 | 0 | 0.0 | 0.0 | 0.00 | 0.25 | 0.25 | 48 | 1016.5 |
| 20260903012712 | 78 | 0 | 0.0 | 1.0 | 0.00 | 0.25 | 0.25 | 42 | 1016.5 |
| 20260903011811 | 78 | 0 | 0.0 | 0.0 | 0.00 | 0.25 | 0.25 | 46 | 1016.5 |
| 20260903010912 | 78 | 0 | 0.0 | 0.0 | 0.00 | 0.25 | 0.25 | 45 | 1016.5 |
| 20260903010012 | 78 | 0 | 0.0 | 0.0 | 0.00 | 0.25 | 0.25 | 44 | 1016.5 |
| 20260903005412 | 78 | 0 | 0.0 | 0.0 | 0.00 | 0.25 | 0.25 | 42 | 1016.5 |
| 20260903004533 | 78 | 0 | 0.0 | 0.0 | 0.00 | 0.25 | 0.25 | 43 | 1016.5 |
| 20260903003612 | 79 | 184 | 0.0 | 5.0 | 0.00 | 0.25 | 0.25 | 44 | 1016.5 |
| 20260903002712 | 80 | 163 | 1.0 | 5.0 | 0.00 | 0.25 | 0.25 | 42 | 1016.5 |
| 20260903001833 | 81 | 104 | 1.0 | 5.0 | 0.00 | 0.25 | 0.25 | 39 | 1016.5 |
| 20260903000912 | 81 | 0 | 0.0 | 0.0 | 0.00 | 0.25 | 0.25 | 38 | 1016.5 |
| 20260903000012 | 82 | 0 | 0.0 | 0.0 | 0.00 | 0.25 | 0.25 | 37 | 1016.5 |
| 20260902235412 | 81 | 0 | 0.0 | 0.0 | 0.00 | 0.25 | 0.25 | 39 | 1016.5 |
| 20260902234512 | 80 | 0 | 0.0 | 0.0 | 0.00 | 0.25 | 0.25 | 41 | 1016.5 |
| 20260902233612 | 80 | 0 | 0.0 | 0.0 | 0.00 | 0.25 | 0.25 | 41 | 1016.5 |
| 20260902232712 | 80 | 64 | 0.0 | 4.0 | 0.00 | 0.25 | 0.25 | 41 | 1016.5 |
| 20260902231812 | 80 | 0 | 0.0 | 1.0 | 0.00 | 0.25 | 0.25 | 42 | 1016.5 |
| 20260902230933 | 79 | 63 | 0.0 | 4.0 | 0.00 | 0.25 | 0.25 | 42 | 1016.5 |
| 20260902230012 | 79 | 63 | 0.0 | 4.0 | 0.00 | 0.25 | 0.25 | 42 | 1016.5 |
| 20260902225412 | 80 | 0 | 0.0 | 0.0 | 0.00 | 0.26 | 0.25 | 42 | 1016.5 |
| 20260902224512 | 79 | 63 | 1.0 | 6.0 | 0.00 | 0.26 | 0.25 | 41 | 1016.5 |
| 20260902223633 | 80 | 63 | 0.0 | 5.0 | 0.00 | 0.26 | 0.25 | 42 | 1016.5 |
| 20260902222712 | 80 | 0 | 0.0 | 1.0 | 0.00 | 0.26 | 0.25 | 41 | 1016.5 |
| 20260902221812 | 79 | 63 | 0.0 | 3.0 | 0.00 | 0.26 | 0.25 | 41 | 1016.5 |
| 20260902220912 | 78 | 63 | 0.0 | 4.0 | 0.00 | 0.26 | 0.25 | 42 | 1016.5 |
| 20260902220012 | 78 | 65 | 1.0 | 6.0 | 0.00 | 0.26 | 0.25 | 44 | 1016.5 |
| 20260902215412 | 77 | 66 | 1.0 | 6.0 | 0.00 | 0.27 | 0.25 | 45 | 1016.5 |
| 20260902214533 | 76 | 67 | 3.0 | 11.0 | 0.00 | 0.30 | 0.25 | 45 | 1016.5 |
| 20260902213612 | 76 | 63 | 3.0 | 12.0 | 0.00 | 0.39 | 0.25 | 46 | 1016.5 |
| 20260902212712 | 76 | 61 | 2.0 | 7.0 | 0.00 | 0.57 | 0.25 | 50 | 1016.5 |
| 20260902211833 | 76 | 58 | 3.0 | 12.0 | 0.00 | 0.73 | 0.25 | 53 | 1016.5 |
| 20260902210933 | 75 | 52 | 1.0 | 7.0 | 0.00 | 0.73 | 0.25 | 49 | 1016.5 |
| 20260902210033 | 75 | 252 | 0.0 | 3.0 | 0.00 | 0.73 | 0.25 | 48 | 1016.5 |
| 20260902205412 | 74 | 248 | 2.0 | 7.0 | 0.00 | 0.73 | 0.25 | 51 | 1016.5 |
| 20260902204533 | 73 | 206 | 2.0 | 7.0 | 0.00 | 0.73 | 0.25 | 56 | 1016.5 |
| 20260902203612 | 71 | 192 | 1.0 | 6.0 | 0.00 | 0.73 | 0.25 | 58 | 1016.5 |
| 20260902202733 | 71 | 191 | 1.0 | 4.0 | 0.00 | 0.73 | 0.25 | 59 | 1016.5 |
| 20260902201812 | 70 | 0 | 0.0 | 0.0 | 0.00 | 0.73 | 0.25 | 62 | 1016.5 |
| 20260902200912 | 70 | 191 | 0.0 | 2.0 | 0.00 | 0.73 | 0.25 | 63 | 1016.5 |
| 20260902200012 | 69 | 0 | 0.0 | 0.0 | 0.00 | 0.73 | 0.25 | 69 | 1016.5 |
| 20260902195412 | 68 | 0 | 0.0 | 0.0 | 0.00 | 0.73 | 0.25 | 75 | 1016.5 |
| 20260902194512 | 67 | 198 | 0.0 | 3.0 | 0.07 | 0.73 | 0.25 | 74 | 1016.5 |
| 20260902193612 | 67 | 0 | 0.0 | 0.0 | 0.20 | 0.73 | 0.25 | 77 | 1016.5 |
| 20260902192712 | 66 | 0 | 0.0 | 0.0 | 0.20 | 0.73 | 0.25 | 73 | 1016.5 |
| 20260902191812 | 66 | 0 | 0.0 | 0.0 | 0.20 | 0.73 | 0.25 | 73 | 1016.5 |
| 20260902190933 | 66 | 0 | 0.0 | 0.0 | 0.21 | 0.73 | 0.25 | 72 | 1016.5 |
| 20260902190033 | 66 | 0 | 0.0 | 1.0 | 0.21 | 0.73 | 0.25 | 73 | 1016.5 |
| 20260902185412 | 66 | 326 | 0.0 | 7.0 | 0.21 | 0.73 | 0.25 | 71 | 1016.5 |
| 20260902184512 | 70 | 326 | 4.0 | 18.0 | 0.14 | 0.66 | 0.20 | 63 | 1016.5 |
| 20260902183633 | 72 | 352 | 3.0 | 11.0 | 0.01 | 0.53 | 0.05 | 56 | 1016.5 |
| 20260902182712 | 71 | 347 | 3.0 | 11.0 | 0.02 | 0.53 | 0.05 | 59 | 1016.5 |
| 20260902181833 | 70 | 316 | 1.0 | 9.0 | 0.05 | 0.53 | 0.05 | 64 | 1016.5 |
| 20260902180912 | 71 | 335 | 2.0 | 8.0 | 0.04 | 0.52 | 0.04 | 59 | 1016.5 |
| 20260902180012 | 71 | 357 | 3.0 | 10.0 | 0.04 | 0.52 | 0.04 | 59 | 1016.5 |
| 20260902175412 | 71 | 347 | 3.0 | 10.0 | 0.04 | 0.52 | 0.04 | 63 | 1016.5 |
| 20260902174512 | 70 | 356 | 2.0 | 10.0 | 0.04 | 0.52 | 0.04 | 68 | 1016.5 |
| 20260902173612 | 71 | 339 | 1.0 | 9.0 | 0.04 | 0.52 | 0.04 | 64 | 1016.5 |
| 20260902172712 | 73 | 258 | 3.0 | 13.0 | 0.03 | 0.51 | 0.03 | 57 | 1016.5 |
| 20260902171812 | 76 | 311 | 3.0 | 9.0 | 0.00 | 0.48 | 0.00 | 51 | 1016.5 |
| 20260902170912 | 78 | 22 | 2.0 | 6.0 | 0.00 | 0.48 | 0.00 | 49 | 1016.5 |
| 20260902170012 | 78 | 8 | 3.0 | 6.0 | 0.00 | 0.48 | 0.00 | 44 | 1016.5 |
| 20260902165412 | 79 | 15 | 3.0 | 7.0 | 0.00 | 0.48 | 0.00 | 45 | 1016.5 |
| 20260902164512 | 80 | 48 | 3.0 | 11.0 | 0.00 | 0.48 | 0.00 | 45 | 1016.5 |
| 20260902163612 | 79 | 68 | 3.0 | 11.0 | 0.00 | 0.48 | 0.00 | 41 | 1016.5 |
| 20260902162712 | 79 | 337 | 0.0 | 4.0 | 0.00 | 0.48 | 0.00 | 41 | 1016.5 |
| 20260902161812 | 78 | 82 | 1.0 | 5.0 | 0.00 | 0.48 | 0.00 | 44 | 1016.5 |
| 20260902160912 | 76 | 82 | 3.0 | 7.0 | 0.00 | 0.48 | 0.00 | 44 | 1016.5 |
| 20260902160012 | 75 | 81 | 1.0 | 5.0 | 0.00 | 0.48 | 0.00 | 47 | 1016.5 |
| 20260902155412 | 74 | 66 | 2.0 | 5.0 | 0.00 | 0.48 | 0.00 | 49 | 1016.5 |
| 20260902154512 | 74 | 62 | 4.0 | 8.0 | 0.00 | 0.48 | 0.00 | 50 | 1016.5 |
| 20260902153612 | 73 | 65 | 4.0 | 8.0 | 0.00 | 0.48 | 0.00 | 51 | 1016.5 |
| 20260902152712 | 73 | 47 | 2.0 | 8.0 | 0.00 | 0.48 | 0.00 | 50 | 1016.5 |
| 20260902151812 | 72 | 45 | 2.0 | 6.0 | 0.00 | 0.48 | 0.00 | 53 | 1016.5 |
| 20260902150912 | 71 | 40 | 2.0 | 10.0 | 0.00 | 0.48 | 0.00 | 52 | 1016.5 |
| 20260902150012 | 69 | 223 | 2.0 | 6.0 | 0.00 | 0.48 | 0.00 | 53 | 1016.5 |